I-INSPIRE II (42731 NORAD) Tracking and Keplerian Element Data

This shows tracking and keplerian element data for the satellite.

Feedback or suggestion? Click here.




ElementValue
Catalog42731
NameI-INSPIRE II
Epoch Orbit6484
Epoch Day196.03055718
Epoch Year2018
RAAN208.8403
Inclination51.6345
Eccentricity0.0004378
Argument of Perigee323.8968
Mean Anonmoly36.1736
Mean Motion15.76937584
Decay Rate0.00038801
L11 42731U 98067ML 18196.03055718 .00038801 00000-0 23729-3 0 9997
L22 42731 51.6345 208.8403 0004378 323.8968 36.1736 15.76937584 64842

Live tracking and technical data element details for I-INSPIRE II (NORAD 42731). I-INSPIRE II can be tracked NOW for your location showing map with azimuth and elevation plus other details from your city location.

Track the satellite on the map from your city or location and see movement details for azimuth, elevation, latitude, longitude, range, height, and movement on the map or in text.







IsCatalogInMostPopularTable: catalog: 42731, numindb: 92
Update: records affected: 1



GetName: 42731 I-INSPIRE II

Hit Count: updated at: Sun, 15 Jul 2018 22:52:41 GMT